HS5NMF Weather Reports


time (UTC)temp
C
wind
direction
speed
KPH
gust
KPH
rain 1hr
cm
rain 24hr
cm
rain mn
cm
humidity
%
barometer
mb
20260509124942 32 0 0.0 0.0 0.00 0.00 0.00 71 976.0
20260509124419 32 0 0.0 0.0 0.00 0.00 0.00 70 976.0
20260509123855 32 0 0.0 0.0 0.00 0.00 0.00 71 976.0
20260509123332 32 0 0.0 0.0 0.00 0.00 0.00 70 976.0
20260509122809 32 0 0.0 0.0 0.00 0.00 0.00 69 976.0
20260509122246 32 0 0.0 0.0 0.00 0.00 0.00 67 976.0
20260509121722 32 0 0.0 0.0 0.00 0.00 0.00 65 976.0
20260509121159 32 0 0.0 0.0 0.00 0.00 0.00 66 976.0
20260509120636 32 0 0.0 0.0 0.00 0.00 0.00 65 976.0
20260509120122 33 0 0.0 0.0 0.00 0.00 0.00 64 976.0
20260509120112 33 0 0.0 0.0 0.00 0.00 0.00 64 976.0
20260509115550 32 0 0.0 0.0 0.00 0.00 0.00 65 976.0
20260509115027 33 0 0.0 0.0 0.00 0.00 0.00 64 976.0
20260509114503 33 0 0.0 0.0 0.00 0.00 0.00 62 975.0
20260509113940 33 0 0.0 0.0 0.00 0.00 0.00 63 975.0
20260509113417 32 0 0.0 0.0 0.00 0.00 0.00 65 975.0
20260509112851 32 0 0.0 0.0 0.00 0.00 0.00 66 975.0
20260509112330 -17 0 0.0 0.0 0.00 0.00 0.00 63 975.0
20260509111806 33 0 0.0 0.0 0.00 0.00 0.00 62 975.0
20260509111244 33 0 0.0 0.0 0.00 0.00 0.00 61 975.0
20260509110719 33 0 0.0 0.0 0.00 0.00 0.00 61 975.0
20260509110153 34 0 0.0 0.0 0.00 0.00 0.00 60 975.0
20260509105629 34 0 0.0 0.0 0.00 0.00 0.00 60 975.0
20260509105106 34 0 0.0 0.0 0.00 0.00 0.00 60 975.0
20260509104543 35 0 0.0 0.0 0.00 0.00 0.00 58 975.0
20260509104020 35 0 0.0 0.0 0.00 0.00 0.00 55 975.0
20260509103457 36 0 0.0 0.0 0.00 0.00 0.00 55 974.0
20260509102934 35 0 0.0 0.0 0.00 0.00 0.00 55 974.0
20260509102410 35 0 0.0 0.0 0.00 0.00 0.00 55 974.0
20260509101848 35 0 0.0 0.0 0.00 0.00 0.00 55 974.0
20260509101323 35 0 0.0 0.0 0.00 0.00 0.00 55 974.0
20260509100801 35 0 0.0 0.0 0.00 0.00 0.00 54 974.0
20260509100238 35 0 0.0 0.0 0.00 0.00 0.00 54 974.0
20260509095714 35 0 0.0 0.0 0.00 0.00 0.00
20260509095152 35 0 0.0 0.0 0.00 0.00 0.00 53 974.0
20260509094627 35 0 0.0 0.0 0.00 0.00 0.00 54 974.0
20260509094103 35 0 0.0 0.0 0.00 0.00 0.00 53 974.0
20260509093541 35 0 0.0 0.0 0.00 0.00 0.00 54 974.0
20260509093027 35 0 0.0 0.0 0.00 0.00 0.00 54 974.0
20260509093017 35 0 0.0 0.0 0.00 0.00 0.00 54 974.0
20260509092454 36 0 0.0 0.0 0.00 0.00 0.00 52 975.0
20260509091931 36 0 0.0 0.0 0.00 0.00 0.00 53 974.0
20260509091409 36 0 0.0 0.0 0.00 0.00 0.00 53
20260509090846 36 0 0.0 0.0 0.00 0.00 0.00 53 974.0
20260509090322 36 0 0.0 0.0 0.00 0.00 0.00 52 975.0
20260509085759 36 0 0.0 0.0 0.00 0.00 0.00 52 975.0
20260509085236 36 0 0.0 0.0 0.00 0.00 0.00 51 975.0
20260509084713 36 0 0.0 0.0 0.00 0.00 0.00 51 975.0
20260509084150 36 0 0.0 0.0 0.00 0.00 0.00 51 975.0
20260509083627 36 0 0.0 0.0 0.00 0.00 0.00 51 975.0
20260509083102 36 0 0.0 0.0 0.00 0.00 0.00 51 975.0
20260509082539 35 0 0.0 0.0 0.00 0.00 0.00 51 975.0
20260509082018 35 0 0.0 0.0 0.00 0.00 0.00 51 975.0
20260509081454 35 0 0.0 0.0 0.00 0.00 0.00 51 975.0
20260509080931 35 0 0.0 0.0 0.00 0.00 0.00 51 976.0
20260509080409 35 0 0.0 0.0 0.00 0.00 0.00 50 976.0
20260509075846 35 0 0.0 0.0 0.00 0.00 0.00 50 976.0
20260509075323 35 0 0.0 0.0 0.00 0.00 0.00 49 976.0
20260509074801 35 0 0.0 0.0 0.00 0.00 0.00 50 976.0
20260509074238 35 0 0.0 0.0 0.00 0.00 0.00 50 976.0
20260509073713 35 0 0.0 0.0 0.00 0.00 0.00 50 976.0
20260509073151 35 0 0.0 0.0 0.00 0.00 0.00 48 976.0
20260509072629 35 0 0.0 0.0 0.00 0.00 0.00 50 976.0
20260509072051 35 0 0.0 0.0 0.00 0.00 0.00 50 976.0
20260509071528 35 0 0.0 0.0 0.00 0.00 0.00 53 976.0
20260509071006 35 0 0.0 0.0 0.00 0.00 0.00 53 976.0
20260509070443 35 0 0.0 0.0 0.00 0.00 0.00 53 976.0
20260509065918 35 0 0.0 0.0 0.00 0.00 0.00 53 976.0
20260509065353 35 0 0.0 0.0 0.00 0.00 0.00 53 976.0
20260509064841 35 0 0.0 0.0 0.00 0.00 0.00
20260509064830 35 0 0.0 0.0 0.00 0.00 0.00 54 976.0
20260509064307 35 0 0.0 0.0 0.00 0.00 0.00 53 977.0
20260509063756 35 0 0.0 0.0 0.00 0.00 0.00 53 977.0
20260509063743 35 0 0.0 0.0 0.00 0.00 0.00 53 977.0
20260509063221 35 0 0.0 0.0 0.00 0.00 0.00
20260509062657 35 0 0.0 0.0 0.00 0.00 0.00 53 977.0
20260509062133 35 0 0.0 0.0 0.00 0.00 0.00 53 977.0
20260509061607 35 0 0.0 0.0 0.00 0.00 0.00 53 977.0
20260509061044 -17 0 0.0 0.0 0.00 0.00 0.00 54 977.0
20260509060520 35 0 0.0 0.0 0.00 0.00 0.00 55 977.0
20260509055958 35 0 0.0 0.0 0.00 0.00 0.00 54 978.0
20260509055431 35 0 0.0 0.0 0.00 0.00 0.00 55 978.0
20260509054907 35 0 0.0 0.0 0.00 0.00 0.00 56 978.0
20260509054347 35 0 0.0 0.0 0.00 0.00 0.00 56 978.0
20260509053817 35 0 0.0 0.0 0.00 0.00 0.00 57 978.0
20260509053806 35 0 0.0 0.0 0.00 0.00 0.00 57 978.0
20260509053240 35 0 0.0 0.0 0.00 0.00 0.00 57 978.0
20260509052717 35 0 0.0 0.0 0.00 0.00 0.00 58 978.0
20260509052140 35 0 0.0 0.0 0.00 0.00 0.00 58 979.0
20260509051600 35 0 0.0 0.0 0.00 0.00 0.00 58 979.0
20260509051517 35 0 0.0 0.0 0.00 0.00 0.00 58 979.0
20260509050954 34 0 0.0 0.0 0.00 0.00 0.00 59 979.0
20260509050427 34 0 0.0 0.0 0.00 0.00 0.00 59 979.0
20260509045904 34 0 0.0 0.0 0.00 0.00 0.00 59 979.0
20260509045341 34 0 0.0 0.0 0.00 0.00 0.00 60 979.0
20260509044816 34 0 0.0 0.0 0.00 0.00 0.00 60 979.0
20260509044253 34 0 0.0 0.0 0.00 0.00 0.00 61 979.0
20260509043729 34 0 0.0 0.0 0.00 0.00 0.00 61 979.0
20260509043204 34 0 0.0 0.0 0.00 0.00 0.00 61 979.0
20260509042639 34 0 0.0 0.0 0.00 0.00 0.00 61 979.0
20260509042114 34 0 0.0 0.0 0.00 0.00 0.00 61 979.0
20260509041551 34 0 0.0 0.0 0.00 0.00 0.00 61 979.0
20260509041022 35 0 0.0 0.0 0.00 0.00 0.00 61 979.0
20260509040457 34 0 0.0 0.0 0.00 0.00 0.00 61 980.0
20260509035935 34 0 0.0 0.0 0.00 0.00 0.00 61 980.0
20260509035411 34 0 0.0 0.0 0.00 0.00 0.00 62 980.0
20260509034848 34 0 0.0 0.0 0.00 0.00 0.00 62 980.0
20260509034322 33 0 0.0 0.0 0.00 0.00 0.00 62 980.0
20260509033759 33 0 0.0 0.0 0.00 0.00 0.00 62 980.0
20260509033233 33 0 0.0 0.0 0.00 0.00 0.00 62 980.0
20260509032710 33 0 0.0 0.0 0.00 0.00 0.00 63 980.0
20260509032146 33 0 0.0 0.0 0.00 0.00 0.00 62 980.0
20260509031622 34 0 0.0 0.0 0.00 0.00 0.00 61 980.0
20260509031102 33 0 0.0 0.0 0.00 0.00 0.00 62 980.0
20260509030534 33 0 0.0 0.0 0.00 0.00 0.00 63 980.0
20260509030010 33 0 0.0 0.0 0.00 0.00 0.00 64 980.0
20260509025447 32 0 0.0 0.0 0.00 0.00 0.00 67 980.0
20260509024922 32 0 0.0 0.0 0.00 0.00 0.00 67 980.0
20260509024356 32 0 0.0 0.0 0.00 0.00 0.00 66 980.0
20260509023831 33 0 0.0 0.0 0.00 0.00 0.00 65 980.0
20260509023310 33 0 0.0 0.0 0.00 0.00 0.00 65 980.0
20260509022741 33 0 0.0 0.0 0.00 0.00 0.00 65 980.0
20260509022216 33 0 0.0 0.0 0.00 0.00 0.00 65 980.0
20260509021650 33 0 0.0 0.0 0.00 0.00 0.00 65 980.0
20260509021124 33 0 0.0 0.0 0.00 0.00 0.00 65 980.0
20260509020601 33 0 0.0 0.0 0.00 0.00 0.00 65 980.0
20260509020038 33 0 0.0 0.0 0.00 0.00 0.00 67 980.0
20260509015512 32 0 0.0 0.0 0.00 0.00 0.00 69 980.0
20260509014948 32 0 0.0 0.0 0.00 0.00 0.00
20260509014424 31 0 0.0 0.0 0.00 0.00 0.00 73 980.0
20260509013901 31 0 0.0 0.0 0.00 0.00 0.00 74 980.0
20260509013336 31 0 0.0 0.0 0.00 0.00 0.00 74 980.0
20260509012810 31 0 0.0 0.0 0.00 0.00 0.00 75 980.0
20260509012245 30 0 0.0 0.0 0.00 0.00 0.00 79 980.0
20260509011720 30 0 0.0 0.0 0.00 0.00 0.00 80 980.0
20260509011156 30 0 0.0 0.0 0.00 0.00 0.00 80 980.0
20260509010632 29 0 0.0 0.0 0.00 0.00 0.00 81 980.0
20260509010105 30 0 0.0 0.0 0.00 0.00 0.00 81 980.0
20260509005540 28 0 0.0 0.0 0.00 0.00 0.00 85 980.0
20260509005016 28 0 0.0 0.0 0.00 0.00 0.00 84 980.0
20260509004449 28 0 0.0 0.0 0.00 0.00 0.00 84 980.0
20260509003925 -17 0 0.0 0.0 0.00 0.00 0.00 83 980.0
20260509003400 28 0 0.0 0.0 0.00 0.00 0.00 86 980.0
20260509002835 28 0 0.0 0.0 0.00 0.00 0.00 86 980.0
20260509002311 27 0 0.0 0.0 0.00 0.00 0.00 89 980.0
20260509001801 27 0 0.0 0.0 0.00 0.00 0.00 88 980.0
20260509001748 27 0 0.0 0.0 0.00 0.00 0.00 88 980.0
20260509001224 28 0 0.0 0.0 0.00 0.00 0.00 85 980.0
20260509000658 27 0 0.0 0.0 0.00 0.00 0.00 88 980.0
20260509000135 28 0 0.0 0.0 0.00 0.00 0.00 85 980.0
20260508235610 28 0 0.0 0.0 0.00 0.00 0.00 87 980.0
20260508235049 28 0 0.0 0.0 0.00 0.00 0.00 980.0
20260508235045 28 0 0.0 0.0 0.00 0.00 0.00 86 980.0
20260508234520 27 0 0.0 0.0 0.00 0.00 0.00 88 979.0
20260508233955 27 0 0.0 0.0 0.00 0.00 0.00 90 979.0
20260508233436 -17 0 0.0 0.0 0.00 0.00 0.00 89 979.0
20260508233431 27 0 0.0 0.0 0.00 0.00 0.00 89 979.0
20260508232907 27 0 0.0 0.0 0.00 0.00 0.00 89 979.0
20260508232340 27 0 0.0 0.0 0.00 0.00 0.00
20260508231816 27 0 0.0 0.0 0.00 0.00 0.00 87 979.0
20260508231251 27 0 0.0 0.0 0.00 0.00 0.00 85 979.0
20260508230726 27 0 0.0 0.0 0.00 0.00 0.00 84 979.0
20260508230201 28 0 0.0 0.0 0.00 0.00 0.00 81 979.0
20260508225636 28 0 0.0 0.0 0.00 0.00 0.00 81 979.0
20260508225121 28 0 0.0 0.0 0.00 0.00 0.00 81 979.0
20260508225110 28 0 0.0 0.0 0.00 0.00 0.00 81 979.0
20260508224546 28 0 0.0 0.0 0.00 0.00 0.00 84 979.0
20260508224022 27 0 0.0 0.0 0.00 0.00 0.00 86 979.0
20260508223459 27 0 0.0 0.0 0.00 0.00 0.00 88 979.0
20260508222934 27 0 0.0 0.0 0.00 0.00 0.00 83 979.0
20260508222410 28 0 0.0 0.0 0.00 0.00 0.00 82 978.0
20260508221847 27 0 0.0 0.0 0.00 0.00 0.00 83 978.0
20260508221324 28 0 0.0 0.0 0.00 0.00 0.00 978.0
20260508220756 28 0 0.0 0.0 0.00 0.00 0.00 79 978.0
20260508220231 28 0 0.0 0.0 0.00 0.00 0.00 81 978.0
20260508215708 27 0 0.0 0.0 0.00 0.00 0.00 82 978.0
20260508215141 28 0 0.0 0.0 0.00 0.00 0.00 82 978.0
20260508214636 28 0 0.0 0.0 0.00 0.00 0.00 80 978.0
20260508214619 28 0 0.0 0.0 0.00 0.00 0.00 80 978.0
20260508214053 28 0 0.0 0.0 0.00 0.00 0.00 80 978.0
20260508213538 28 0 0.0 0.0 0.00 0.00 0.00 79 978.0
20260508213529 28 0 0.0 0.0 0.00 0.00 0.00 79 978.0
20260508213005 28 0 0.0 0.0 0.00 0.00 0.00 79 978.0
20260508212441 28 0 0.0 0.0 0.00 0.00 0.00 81 978.0
20260508211912 28 0 0.0 0.0 0.00 0.00 0.00 81 977.0
20260508211349 28 0 0.0 0.0 0.00 0.00 0.00 82 977.0
20260508210825 27 0 0.0 0.0 0.00 0.00 0.00 84 977.0
20260508210259 27 0 0.0 0.0 0.00 0.00 0.00 87 977.0
20260508205734 27 0 0.0 0.0 0.00 0.00 0.00 83 977.0
20260508205209 27 0 0.0 0.0 0.00 0.00 0.00 977.0
20260508204644 27 0 0.0 0.0 0.00 0.00 0.00 82 977.0
20260508204119 27 0 0.0 0.0 0.00 0.00 0.00 84 977.0
20260508203554 27 0 0.0 0.0 0.00 0.00 0.00 84 977.0
20260508203039 27 0 0.0 0.0 0.00 0.00 0.00 82 977.0
20260508203031 27 0 0.0 0.0 0.00 0.00 0.00 977.0
20260508203029 27 0 0.0 0.0 0.00 0.00 0.00 82 977.0
20260508202505 27 0 0.0 0.0 0.00 0.00 0.00 86 977.0
20260508201943 27 0 0.0 0.0 0.00 0.00 0.00 88 977.0
20260508201416 27 0 0.0 0.0 0.00 0.00 0.00 86 977.0
20260508200851 27 0 0.0 0.0 0.00 0.00 0.00 86 977.0
20260508200326 27 0 0.0 0.0 0.00 0.00 0.00 88 977.0
20260508195802 27 0 0.0 0.0 0.00 0.00 0.00 91 977.0
20260508195237 27 0 0.0 0.0 0.00 0.00 0.00 91 977.0
20260508194712 27 0 0.0 0.0 0.00 0.00 0.00 93 977.0
20260508194148 27 0 0.0 0.0 0.00 0.00 0.00 96 977.0
20260508193623 27 0 0.0 0.0 0.00 0.00 0.00 96 977.0
20260508193056 27 0 0.0 0.0 0.00 0.00 0.00 91 977.0
20260508192533 28 0 0.0 0.0 0.00 0.00 0.00 86 977.0
20260508192009 27 0 0.0 0.0 0.00 0.00 0.00 88 977.0
20260508191442 28 0 0.0 0.0 0.00 0.00 0.00 83 977.0
20260508190919 28 0 0.0 0.0 0.00 0.00 0.00 84 977.0
20260508190354 28 0 0.0 0.0 0.00 0.00 0.00 83 977.0
20260508185829 28 0 0.0 0.0 0.00 0.00 0.00 82 977.0
20260508185306 28 0 0.0 0.0 0.00 0.00 0.00 83 978.0
20260508184740 28 0 0.0 0.0 0.00 0.00 0.00 81 978.0
20260508184224 28 0 0.0 0.0 0.00 0.00 0.00 82 978.0
20260508184216 28 0 0.0 0.0 0.00 0.00 0.00 82 978.0
20260508183650 28 0 0.0 0.0 0.00 0.00 0.00 82 978.0
20260508183123 28 0 0.0 0.0 0.00 0.00 0.00 83 978.0
20260508182601 28 0 0.0 0.0 0.00 0.00 0.00 84 978.0
20260508182559 28 0 0.0 0.0 0.00 0.00 0.00 84 978.0
20260508182035 28 0 0.0 0.0 0.00 0.00 0.00 85 978.0
20260508181508 28 0 0.0 0.0 0.00 0.00 0.00 87 979.0
20260508180945 28 0 0.0 0.0 0.00 0.00 0.00 86 979.0
20260508180402 28 0 0.0 0.0 0.00 0.00 0.00 87 979.0
20260508175834 27 0 0.0 0.0 0.00 0.00 0.00 92 979.0
20260508175311 27 0 0.0 0.0 0.00 0.00 0.00 92 979.0
20260508174743 27 0 0.0 0.0 0.00 0.00 0.00 93 979.0
20260508174219 27 0 0.0 0.0 0.00 0.00 0.00 90 979.0
20260508173656 28 0 0.0 0.0 0.00 0.00 0.00 85 979.0
20260508173132 28 0 0.0 0.0 0.00 0.00 0.00 83 979.0
20260508172606 28 0 0.0 0.0 0.00 0.00 0.00 85 979.0
20260508172048 -17 0 0.0 0.0 0.00 0.00 0.00 85 979.0
20260508172045 28 0 0.0 0.0 0.00 0.00 0.00 85 979.0
20260508171518 28 0 0.0 0.0 0.00 0.00 0.00 86 979.0
20260508170954 28 0 0.0 0.0 0.00 0.00 0.00 85 979.0
20260508170432 28 0 0.0 0.0 0.00 0.00 0.00 88 979.0
20260508165908 28 0 0.0 0.0 0.00 0.00 0.00 85 979.0
20260508165352 28 0 0.0 0.0 0.00 0.00 0.00 86 979.0
20260508165340 -17 0 0.0 0.0 0.00 0.00 0.00 86 979.0
20260508164817 28 0 0.0 0.0 0.00 0.00 0.00 86 979.0
20260508164252 28 0 0.0 0.0 0.00 0.00 0.00 85 979.0
20260508163728 28 0 0.0 0.0 0.00 0.00 0.00 86 979.0
20260508163202 28 0 0.0 0.0 0.00 0.00 0.00 87 979.0
20260508162637 28 0 0.0 0.0 0.00 0.00 0.00 88 979.0
20260508162114 28 0 0.0 0.0 0.00 0.00 0.00 87 979.0
20260508161550 28 0 0.0 0.0 0.00 0.00 0.00 88 979.0
20260508161023 28 0 0.0 0.0 0.00 0.00 0.00 88 979.0
20260508160500 28 0 0.0 0.0 0.00 0.00 0.00 90 979.0
20260508155935 28 0 0.0 0.0 0.00 0.00 0.00 89 979.0
20260508155411 28 0 0.0 0.0 0.00 0.00 0.00 86 979.0
20260508154848 28 0 0.0 0.0 0.00 0.00 0.00 88 979.0
20260508154322 28 0 0.0 0.0 0.00 0.00 0.00 88 979.0
20260508153758 28 0 0.0 0.0 0.00 0.00 0.00 89 979.0
20260508153235 28 0 0.0 0.0 0.00 0.00 0.00 86 979.0
20260508152710 28 0 0.0 0.0 0.00 0.00 0.00 91 979.0
20260508152146 28 0 0.0 0.0 0.00 0.00 0.00 88 979.0
20260508151622 28 0 0.0 0.0 0.00 0.00 0.00 90 979.0
20260508151100 28 0 0.0 0.0 0.00 0.00 0.00 86 979.0
20260508150544 28 0 0.0 0.0 0.00 0.00 0.00 89 979.0
20260508150534 28 0 0.0 0.0 0.00 0.00 0.00 89 979.0
20260508150010 27 0 0.0 0.0 0.00 0.00 0.00 94 979.0
20260508145445 27 0 0.0 0.0 0.00 0.00 0.00 93 979.0
20260508144920 28 0 0.0 0.0 0.00 0.00 0.00 89 979.0
20260508144355 28 0 0.0 0.0 0.00 0.00 0.00 86 979.0
20260508143829 28 0 0.0 0.0 0.00 0.00 0.00 89 979.0
20260508143306 28 0 0.0 0.0 0.00 0.00 0.00 87 979.0
20260508142740 27 0 0.0 0.0 0.00 0.00 0.00 90 979.0
20260508142221 27 0 0.0 0.0 0.00 0.00 0.00 91 979.0
20260508142217 27 0 0.0 0.0 0.00 0.00 0.00 91 979.0
20260508141653 27 0 0.0 0.0 0.00 0.00 0.00 91 979.0
20260508141128 27 0 0.0 0.0 0.00 0.00 0.00 93 979.0
20260508140605 28 0 0.0 0.0 0.00 0.00 0.00 90 979.0
20260508140043 27 0 0.0 0.0 0.00 0.00 0.00 92 979.0
20260508135517 27 0 0.0 0.0 0.00 0.00 0.00 91 979.0
20260508134953 28 0 0.0 0.0 0.00 0.00 0.00 88 979.0
20260508134429 27 0 0.0 0.0 0.00 0.00 0.00 91 979.0
20260508133906 27 0 0.0 0.0 0.00 0.00 0.00 90 979.0
20260508133341 28 0 0.0 0.0 0.00 0.00 0.00 90 979.0
20260508132817 27 0 0.0 0.0 0.00 0.00 0.00 90
20260508132256 27 0 0.0 0.0 0.00 0.00 0.00 90 979.0
20260508131730 28 0 0.0 0.0 0.00 0.00 0.00 88 978.0
20260508131205 28 0 0.0 0.0 0.00 0.00 0.00 86 978.0
20260508130640 29 0 0.0 0.0 0.00 0.00 0.00 82 978.0
20260508130115 28 0 0.0 0.0 0.00 0.00 0.00 83 978.0
20260508125550 29 0 0.0 0.0 0.00 0.00 0.00 82 978.0